Simultaneous Nadir Overpasses (SNOs) Predictions

Prediction of SNOs between GOES-16 and AQUA Satellite Orbit:

Table of predicted SNOs for the next 14.0 days since TLE Epoch: 8/20/2022
Index Date Time (GOES-16) GOES-16 Lat,Lon AQUA Lat,Lon Distance(km) Time Diff (sec)
1 08/21/2022 18:39:28 -0.03, -75.21 0.08, -74.56 73.63 80
2 08/23/2022 18:26:48 -0.01, -75.22 0.76, -71.48 424.80 80
3 08/24/2022 06:47:56 0.00, -75.21 0.32, -76.60 158.49 80
4 08/26/2022 06:32:36 -0.01, -75.23 -0.38, -73.53 193.83 80
5 08/26/2022 18:53:53 0.01, -75.24 -0.70, -78.69 391.27 80
6 08/28/2022 18:41:12 0.00, -75.27 -0.05, -75.60 37.70 80
7 08/30/2022 18:31:11 0.00, -75.30 0.62, -72.52 316.66 80
8 08/31/2022 06:52:18 -0.00, -75.30 0.52, -77.63 265.71 80
9 09/02/2022 06:36:57 -0.00, -75.33 -0.17, -74.55 88.82 80
10 09/02/2022 18:58:13 0.00, -75.34 -0.95, -79.70 495.97 80
